Van Nuys, CA

2:55 AM PDT on June 24, 2018 (GMT -0700)
Van Nuys

Weather History for KVNY - October, 2017

Change the Weather History Date:

Saturday, October 7, 2017

  Actual Average Record
Temperature  
Mean Temperature 78 °F -  
Max Temperature 97 °F 82 °F 105 °F (1996)
Min Temperature 59 °F 55 °F 51 °F (1998)
Cooling Degree Days 13    
Growing Degree Days 28 (Base 50)    
Moisture  
Dew Point 26 °F    
Average Humidity 19    
Maximum Humidity 41    
Minimum Humidity 5    
Precipitation  
Precipitation 0.00 in - - ()
Sea Level Pressure  
Sea Level Pressure 29.78 in    
Wind  
Wind Speed 2 mph (West)    
Max Wind Speed 12 mph    
Max Gust Speed 16 mph    
Visibility 10 miles    
Events      
Averages and records for this station are not official NWS values.
T = Trace of Precipitation, MM = Missing Value Source: NWS Daily Summary

Daily Weather History Graph

Daily Weather History Graph

Search for Another Location

Airport or City:

Astronomy

Oct. 07, 2017 Rise Set
Actual Time 6:53 AM PDT 6:29 PM PDT
Civil Twilight 6:28 AM PDT 6:54 PM PDT
Nautical Twilight 5:59 AM PDT 7:23 PM PDT
Astronomical Twilight 5:30 AM PDT 7:52 PM PDT
Moon 8:15 PM PDT (10/7) 8:49 AM PDT (10/7)
Length of Visible Light 12h 26m
Length of Day
11h 36m
Waning Gibbous, 95% of the Moon is Illuminated
Oct 7
Waning Gibbous
Oct 12
Last Quarter
Oct 19
New
Oct 27
First Quarter
Nov 3
Full

Hourly Weather History & Observations

Time (PDT) Temp. Dew Point Humidity Pressure Visibility Wind Dir Wind Speed Gust Speed Precip Events Conditions
12:51 AM 69.1 °F 28.0 °F 22% 29.84 in 10.0 mi Calm Calm - N/A   Clear
1:51 AM 68.0 °F 28.9 °F 23% 29.84 in 10.0 mi Calm Calm - N/A   Clear
2:51 AM 66.0 °F 30.0 °F 26% 29.83 in 10.0 mi Calm Calm - N/A   Clear
3:51 AM 62.1 °F 32.0 °F 32% 29.82 in 10.0 mi Calm Calm - N/A   Clear
4:51 AM 62.1 °F 33.1 °F 34% 29.81 in 10.0 mi Calm Calm - N/A   Clear
5:51 AM 62.1 °F 34.0 °F 35% 29.83 in 10.0 mi Calm Calm - N/A   Clear
6:51 AM 59.0 °F 35.1 °F 41% 29.83 in 10.0 mi Calm Calm - N/A   Clear
7:51 AM 64.0 °F 33.1 °F 31% 29.82 in 10.0 mi Calm Calm - N/A   Clear
8:51 AM 72.0 °F 28.9 °F 20% 29.83 in 10.0 mi Calm Calm - N/A   Clear
9:51 AM 79.0 °F 28.9 °F 16% 29.83 in 10.0 mi Calm Calm - N/A   Clear
10:51 AM 87.1 °F 19.0 °F 8% 29.83 in 10.0 mi Calm Calm - N/A   Clear
11:51 AM 93.0 °F 12.9 °F 5% 29.81 in 10.0 mi Variable 3.5 mph - N/A   Clear
12:51 PM 93.0 °F 18.0 °F 6% 29.78 in 10.0 mi WSW 4.6 mph - N/A   Clear
1:51 PM 97.0 °F 21.9 °F 7% 29.75 in 10.0 mi SSE 6.9 mph - N/A   Clear
2:51 PM 96.1 °F 17.1 °F 6% 29.73 in 10.0 mi South 8.1 mph - N/A   Clear
3:51 PM 95.0 °F 17.1 °F 6% 29.72 in 10.0 mi Variable 4.6 mph - N/A   Clear
4:51 PM 91.0 °F 14.0 °F 6% 29.72 in 10.0 mi WNW 11.5 mph 16.1 mph N/A   Clear
5:51 PM 88.0 °F 17.1 °F 7% 29.72 in 10.0 mi WNW 11.5 mph - N/A   Clear
6:51 PM 84.0 °F 19.0 °F 9% 29.72 in 10.0 mi West 4.6 mph - N/A   Clear
7:51 PM 80.1 °F 21.9 °F 12% 29.73 in 10.0 mi Calm Calm - N/A   Clear
8:51 PM 77.0 °F 27.0 °F 16% 29.72 in 10.0 mi NNW 3.5 mph - N/A   Clear
9:51 PM 73.9 °F 28.9 °F 19% 29.72 in 10.0 mi Calm Calm - N/A   Clear
10:51 PM 69.1 °F 35.1 °F 29% 29.73 in 10.0 mi Calm Calm - N/A   Clear
11:51 PM 66.9 °F 37.0 °F 33% 29.73 in 10.0 mi Calm Calm - N/A   Clear